| time (UTC) | temp C | wind direction | speed KPH | gust KPH | rain 1hr cm | rain 24hr cm | rain mn cm | humidity % | barometer mb |
| 20260504223050 | 26 | 131 | 1.6 | 9.7 | 0.00 | 0.00 | 0.00 | 64 | 1011.0 |
| 20260504221547 | 26 | 150 | 3.2 | 9.7 | 0.00 | 0.00 | 0.00 | 63 | 1011.4 |
| 20260504220048 | 26 | 0 | 1.6 | 11.3 | 0.00 | 0.00 | 0.00 | 63 | 1011.5 |
| 20260504214555 | 27 | 238 | 1.6 | 11.3 | 0.00 | 0.00 | 0.00 | 61 | 1011.5 |
| 20260504213049 | 27 | 255 | 3.2 | 9.7 | 0.00 | 0.00 | 0.00 | 60 | 1011.8 |
| 20260504211546 | 27 | 232 | 1.6 | 12.9 | 0.00 | 0.00 | 0.00 | 60 | 1011.7 |
| 20260504204558 | 28 | 313 | 1.6 | 11.3 | 0.00 | 0.00 | 0.00 | 57 | 1012.3 |
| 20260504203111 | 28 | 331 | 3.2 | 11.3 | 0.00 | 0.00 | 0.00 | 57 | 1012.5 |
| 20260504201547 | 27 | 328 | 3.2 | 11.3 | 0.00 | 0.00 | 0.00 | 57 | 1012.8 |
| 20260504200054 | 27 | 246 | 1.6 | 11.3 | 0.00 | 0.00 | 0.00 | 57 | 1013.1 |
| 20260504194547 | 27 | 75 | 1.6 | 9.7 | 0.00 | 0.00 | 0.00 | 57 | 1013.2 |
| 20260504193048 | 28 | 342 | 3.2 | 9.7 | 0.00 | 0.00 | 0.00 | 55 | 1013.4 |
| 20260504191553 | 28 | 158 | 3.2 | 9.7 | 0.00 | 0.00 | 0.00 | 55 | 1013.7 |
| 20260504190058 | 28 | 129 | 1.6 | 16.1 | 0.00 | 0.00 | 0.00 | 56 | 1013.9 |
| 20260504184551 | 28 | 258 | 1.6 | 14.5 | 0.00 | 0.00 | 0.00 | 55 | 1014.0 |
| 20260504183047 | 27 | 44 | 3.2 | 9.7 | 0.00 | 0.00 | 0.00 | 57 | 1014.1 |
| 20260504181543 | 27 | 86 | 3.2 | 12.9 | 0.00 | 0.00 | 0.00 | 58 | 1014.2 |
| 20260504180051 | 27 | 205 | 1.6 | 12.9 | 0.00 | 0.00 | 0.00 | 58 | 1014.6 |
| 20260504174546 | 27 | 333 | 3.2 | 11.3 | 0.00 | 0.00 | 0.00 | 55 | 1014.7 |
| 20260504173055 | 26 | 48 | 3.2 | 11.3 | 0.00 | 0.00 | 0.00 | 57 | 1014.8 |
| 20260504171546 | 27 | 255 | 3.2 | 8.0 | 0.00 | 0.00 | 0.00 | 60 | 1015.2 |
| 20260504081550 | 16 | 0 | 0.0 | 0.0 | 0.00 | 0.00 | 0.00 | 79 | 1016.6 |
| 20260504044553 | 18 | 0 | 0.0 | 0.0 | 0.00 | 0.00 | 0.00 | 66 | 1018.6 |
| 20260504043048 | 18 | 0 | 0.0 | 1.6 | 0.00 | 0.00 | 0.00 | 64 | 1018.6 |
| 20260504041550 | 18 | 0 | 0.0 | 4.8 | 0.00 | 0.00 | 0.00 | 63 | 1018.7 |
| 20260504040058 | 19 | 185 | 0.0 | 4.8 | 0.00 | 0.00 | 0.00 | 62 | 1018.6 |
| 20260504034556 | 18 | 72 | 0.0 | 4.8 | 0.00 | 0.00 | 0.00 | 62 | 1018.6 |
| 20260504033047 | 18 | 0 | 0.0 | 3.2 | 0.00 | 0.00 | 0.00 | 63 | 1018.7 |
| 20260504031555 | 19 | 0 | 0.0 | 0.0 | 0.00 | 0.00 | 0.00 | 62 | 1018.6 |
| 20260504030050 | 20 | 0 | 0.0 | 1.6 | 0.00 | 0.00 | 0.00 | 60 | 1018.5 |
| 20260504024552 | 20 | 265 | 0.0 | 8.0 | 0.00 | 0.00 | 0.00 | 58 | 1018.3 |
| 20260504023046 | 20 | 0 | 0.0 | 6.4 | 0.00 | 0.00 | 0.00 | 57 | 1018.4 |
| 20260504021552 | 21 | 0 | 0.0 | 11.3 | 0.00 | 0.00 | 0.00 | 56 | 1018.3 |
| 20260504014559 | 21 | 0 | 0.0 | 9.7 | 0.00 | 0.00 | 0.00 | 53 | 1018.1 |
| 20260504013108 | 21 | 0 | 0.0 | 4.8 | 0.00 | 0.00 | 0.00 | 53 | 1018.1 |
| 20260504011546 | 22 | 84 | 0.0 | 4.8 | 0.00 | 0.00 | 0.00 | 52 | 1017.8 |
| 20260504010047 | 22 | 0 | 1.6 | 8.0 | 0.00 | 0.00 | 0.00 | 51 | 1017.8 |
| 20260504004548 | 22 | 110 | 0.0 | 6.4 | 0.00 | 0.00 | 0.00 | 49 | 1017.8 |
| 20260504003047 | 23 | 27 | 3.2 | 11.3 | 0.00 | 0.00 | 0.00 | 48 | 1017.8 |
| 20260504001549 | 23 | 221 | 1.6 | 6.4 | 0.00 | 0.00 | 0.00 | 47 | 1017.8 |
| 20260504000046 | 23 | 16 | 1.6 | 8.0 | 0.00 | 0.00 | 0.00 | 45 | 1017.9 |
| 20260503234553 | 24 | 321 | 3.2 | 12.9 | 0.00 | 0.00 | 0.00 | 44 | 1017.8 |
| 20260503233049 | 25 | 279 | 0.0 | 6.4 | 0.00 | 0.00 | 0.00 | 43 | 1018.0 |
| 20260503231548 | 25 | 298 | 1.6 | 9.7 | 0.00 | 0.00 | 0.00 | 40 | 1018.0 |
| 20260503230049 | 25 | 334 | 1.6 | 4.8 | 0.00 | 0.00 | 0.00 | 39 | 1018.0 |
| 20260503224550 | 26 | 120 | 1.6 | 6.4 | 0.00 | 0.00 | 0.00 | 38 | 1018.2 |